Weather History for KL35 - February, 2014

Change the Weather History Date:

Sunday, February 16, 2014

  Actual Average (KBUO) Record (KBUO)
Temperature  
Mean Temperature 42 °F -  
Max Temperature 59 °F 57 °F 77 °F (1997)
Min Temperature 26 °F 40 °F 32 °F (1998)
Degree Days  
Heating Degree Days 22    
Moisture  
Dew Point 18 °F    
Average Humidity 34    
Maximum Humidity 60    
Minimum Humidity 16    
Precipitation  
Precipitation 0.00 in - - ()
Sea Level Pressure  
Sea Level Pressure 30.21 in    
Wind  
Wind Speed 6 mph (WSW)    
Max Wind Speed 16 mph    
Max Gust Speed 26 mph    
Visibility 10 miles    
Events      
Averages and records for this station are not official NWS values.
T = Trace of Precipitation, MM = Missing Value Source: NWS Daily Summary

Daily Weather History Graph

Daily Weather History Graph

Search for Another Location

Airport or City:

Trip Planner

Search our weather history database for the weather conditions in past years. The results will help you decide how hot, cold, wet, or windy it might be!

Date:

Astronomy

Feb. 16, 2014 Rise Set
Actual Time 6:31 AM PST 5:32 PM PST
Civil Twilight 6:05 AM PST 5:57 PM PST
Nautical Twilight 5:36 AM PST 6:27 PM PST
Astronomical Twilight 5:07 AM PST 6:56 PM PST
Moon 7:25 PM PST (2/16) 7:09 AM PST (2/16)
Length of Visible Light 11h 52m
Length of Day
11h 00m
Full, 97% of the Moon is Illuminated
Feb 16
Full
Feb 22
Last Quarter
Mar 1
New
Mar 8
First Quarter
Mar 16
Full

Hourly Weather History & Observations

Time (PST) Temp. Windchill Dew Point Humidity Pressure Visibility Wind Dir Wind Speed Gust Speed Precip Events Conditions
12:15 AM 44.6 °F 41.4 °F 19.4 °F 37% 30.20 in 10.0 mi WSW 5.8 mph - N/A   Clear
12:35 AM 46.4 °F 43.5 °F 15.8 °F 29% 30.20 in 10.0 mi WSW 5.8 mph - N/A   Clear
12:55 AM 46.4 °F 43.5 °F 15.8 °F 29% 30.19 in 10.0 mi WSW 5.8 mph - N/A   Clear
1:15 AM 46.4 °F 43.5 °F 17.6 °F 32% 30.19 in 10.0 mi WSW 5.8 mph - N/A   Clear
1:35 AM 46.4 °F 42.9 °F 14.0 °F 27% 30.18 in 10.0 mi WSW 6.9 mph - N/A   Clear
1:55 AM 46.4 °F 42.4 °F 17.6 °F 32% 30.17 in 10.0 mi WSW 8.1 mph - N/A   Clear
2:15 AM 46.4 °F 42.9 °F 17.6 °F 32% 30.17 in 10.0 mi West 6.9 mph - N/A   Clear
2:35 AM 46.4 °F 40.7 °F 21.2 °F 37% 30.16 in 10.0 mi West 12.7 mph - N/A   Clear
2:55 AM 48.2 °F - 17.6 °F 30% 30.16 in 10.0 mi West 10.4 mph 16.1 mph N/A   Clear
3:15 AM 48.2 °F - 15.8 °F 27% 30.14 in 10.0 mi West 13.8 mph 20.7 mph N/A   Clear
3:35 AM 48.2 °F - 17.6 °F 30% 30.16 in 10.0 mi West 15.0 mph 26.5 mph N/A   Clear
3:55 AM 48.2 °F - 17.6 °F 30% 30.16 in 10.0 mi WSW 11.5 mph 21.9 mph N/A   Clear
4:15 AM 46.4 °F 42.4 °F 15.8 °F 29% 30.16 in 10.0 mi WSW 8.1 mph - N/A   Clear
4:35 AM 46.4 °F 42.9 °F 15.8 °F 29% 30.16 in 10.0 mi WSW 6.9 mph - N/A   Clear
4:55 AM 44.6 °F 42.2 °F 17.6 °F 34% 30.17 in 10.0 mi West 4.6 mph - N/A   Clear
5:15 AM 46.4 °F 42.4 °F 17.6 °F 32% 30.17 in 10.0 mi SW 8.1 mph - N/A   Clear
5:35 AM 46.4 °F 43.5 °F 17.6 °F 32% 30.16 in 10.0 mi SW 5.8 mph - N/A   Clear
5:55 AM 44.6 °F 43.1 °F 19.4 °F 37% 30.17 in 10.0 mi WNW 3.5 mph - N/A   Clear
6:15 AM 42.8 °F - 19.4 °F 39% 30.18 in 10.0 mi Calm Calm - N/A   Clear
6:35 AM 41.0 °F 39.0 °F 19.4 °F 42% 30.19 in 10.0 mi WSW 3.5 mph - N/A   Clear
6:55 AM 41.0 °F 38.0 °F 19.4 °F 42% 30.19 in 10.0 mi WSW 4.6 mph - N/A   Clear
7:15 AM 41.0 °F 39.0 °F 19.4 °F 42% 30.20 in 10.0 mi WSW 3.5 mph - N/A   Clear
7:35 AM 42.8 °F 41.1 °F 21.2 °F 42% 30.20 in 10.0 mi West 3.5 mph - N/A   Clear
7:55 AM 46.4 °F 43.5 °F 23.0 °F 40% 30.21 in 10.0 mi West 5.8 mph - N/A   Clear
8:15 AM 48.2 °F - 21.2 °F 34% 30.20 in 10.0 mi West 5.8 mph - N/A   Clear
8:35 AM 50.0 °F - 21.2 °F 32% 30.21 in 10.0 mi WSW 6.9 mph - N/A   Clear
8:55 AM 53.6 °F - 19.4 °F 26% 30.22 in 10.0 mi WSW 6.9 mph - N/A   Clear
9:15 AM 53.6 °F - 21.2 °F 28% 30.22 in 10.0 mi SW 11.5 mph 18.4 mph N/A   Clear
9:35 AM 53.6 °F - 21.2 °F 28% 30.22 in 10.0 mi WSW 12.7 mph 21.9 mph N/A   Clear
9:55 AM 55.4 °F - 21.2 °F 26% 30.22 in 10.0 mi West 16.1 mph 20.7 mph N/A   Clear
10:15 AM 55.4 °F - 19.4 °F 25% 30.22 in 10.0 mi West 12.7 mph 19.6 mph N/A   Clear
10:35 AM 55.4 °F - 19.4 °F 25% 30.22 in 10.0 mi WSW 11.5 mph 21.9 mph N/A   Clear
10:55 AM 55.4 °F - 21.2 °F 26% 30.22 in 10.0 mi WSW 10.4 mph 16.1 mph N/A   Clear
11:15 AM 57.2 °F - 21.2 °F 25% 30.22 in 10.0 mi West 10.4 mph - N/A   Clear
11:35 AM 59.0 °F - 23.0 °F 25% 30.21 in 10.0 mi WSW 6.9 mph 16.1 mph N/A   Clear
11:55 AM 59.0 °F - 23.0 °F 25% 30.21 in 10.0 mi SW 8.1 mph 18.4 mph N/A   Clear
12:15 PM 59.0 °F - 23.0 °F 25% 30.20 in 10.0 mi WSW 8.1 mph - N/A   Clear
12:35 PM 59.0 °F - 23.0 °F 25% 30.19 in 10.0 mi SW 9.2 mph 21.9 mph N/A   Clear
12:55 PM 59.0 °F - 23.0 °F 25% 30.19 in 10.0 mi WSW 10.4 mph 19.6 mph N/A   Clear
1:15 PM 59.0 °F - 23.0 °F 25% 30.19 in 10.0 mi West 10.4 mph 18.4 mph N/A   Clear
1:35 PM 59.0 °F - 23.0 °F 25% 30.19 in 10.0 mi West 9.2 mph - N/A   Clear
1:55 PM 59.0 °F - 21.2 °F 23% 30.19 in 10.0 mi WSW 5.8 mph 9.2 mph N/A   Clear
2:15 PM 59.0 °F - 17.6 °F 20% 30.19 in 10.0 mi West 8.1 mph - N/A   Clear
2:35 PM 59.0 °F - 19.4 °F 22% 30.18 in 10.0 mi WSW 5.8 mph 16.1 mph N/A   Clear
2:55 PM 59.0 °F - 17.6 °F 20% 30.19 in 10.0 mi WSW 8.1 mph 17.3 mph N/A   Clear
3:15 PM 59.0 °F - 14.0 °F 17% 30.19 in 10.0 mi WSW 9.2 mph - N/A   Clear
3:35 PM 59.0 °F - 12.2 °F 16% 30.20 in 10.0 mi West 6.9 mph - N/A   Clear
3:55 PM 57.2 °F - 12.2 °F 17% 30.20 in 10.0 mi WSW 5.8 mph - N/A   Clear
4:15 PM 57.2 °F - 14.0 °F 18% 30.20 in 10.0 mi West 6.9 mph - N/A   Clear
4:35 PM 55.4 °F - 17.6 °F 23% 30.20 in 10.0 mi WSW 3.5 mph - N/A   Clear
4:55 PM 53.6 °F - 21.2 °F 28% 30.21 in 10.0 mi West 5.8 mph - N/A   Clear
5:15 PM 53.6 °F - 19.4 °F 26% 30.22 in 10.0 mi Calm Calm - N/A   Clear
5:35 PM 50.0 °F - 19.4 °F 30% 30.22 in 10.0 mi Calm Calm - N/A   Clear
5:55 PM 46.4 °F - 19.4 °F 34% 30.23 in 10.0 mi Calm Calm - N/A   Clear
6:15 PM 44.6 °F 43.1 °F 19.4 °F 37% 30.23 in 10.0 mi SW 3.5 mph - N/A   Clear
6:35 PM 42.8 °F - 17.6 °F 36% 30.24 in 10.0 mi Calm Calm - N/A   Clear
6:55 PM 41.0 °F - 17.6 °F 39% 30.24 in 10.0 mi Calm Calm - N/A   Clear
7:15 PM 37.4 °F - 15.8 °F 41% 30.25 in 10.0 mi Calm Calm - N/A   Clear
7:35 PM 35.6 °F - 15.8 °F 44% 30.25 in 10.0 mi Calm Calm - N/A   Clear
7:55 PM 33.8 °F - 15.8 °F 48% 30.26 in 10.0 mi Calm Calm - N/A   Clear
8:15 PM 32.0 °F - 15.8 °F 51% 30.26 in 10.0 mi Calm Calm - N/A   Clear
8:35 PM 32.0 °F - 17.6 °F 55% 30.27 in 10.0 mi Calm Calm - N/A   Clear
8:55 PM 32.0 °F - 17.6 °F 55% 30.27 in 10.0 mi Calm Calm - N/A   Clear
9:15 PM 30.2 °F - 17.6 °F 60% 30.28 in 10.0 mi Calm Calm - N/A   Clear
9:35 PM 30.2 °F - 15.8 °F 55% 30.28 in 10.0 mi Calm Calm - N/A   Clear
9:55 PM 30.2 °F - 15.8 °F 55% 30.28 in 10.0 mi Calm Calm - N/A   Clear
10:15 PM 28.4 °F - 15.8 °F 59% 30.28 in 10.0 mi Calm Calm - N/A   Clear
10:35 PM 28.4 °F - 15.8 °F 59% 30.27 in 10.0 mi Calm Calm - N/A   Clear
10:55 PM 28.4 °F - 14.0 °F 55% 30.27 in 10.0 mi Calm Calm - N/A   Clear
11:15 PM 28.4 °F - 14.0 °F 55% 30.27 in 10.0 mi Calm Calm - N/A   Clear
11:35 PM 26.6 °F 22.6 °F 14.0 °F 59% 30.26 in 10.0 mi West 3.5 mph - N/A   Clear
11:55 PM 26.6 °F - 14.0 °F 59% 30.26 in 10.0 mi Calm Calm - N/A   Clear